Regional Weather Roundup
Issued by NWS Cleveland, OH

Home | Current Version | Previous Version | Graphics & Text | Print | Product List | Glossary On
Versions: 1 2 3 4 5 6 7 8 9 10 11 12 13 14 15 16 17 18 19 20 21 22 23 24 25 26 27 28 29 30 31 32 33 34 35 36 37 38 39 40 41 42 43 44 45 46 47 48 49 50
000
ASUS41 KCLE 070202
RWRCLE
OHIO REGIONAL WEATHER ROUNDUP
NATIONAL WEATHER SERVICE CLEVELAND, OH
1000 PM EDT MON JUL 06 2015

NOTE: "FAIR" INDICATES FEW OR NO CLOUDS BELOW 12,000 FEET WITH NO
SIGNIFICANT WEATHER AND/OR OBSTRUCTIONS TO VISIBILITY.

OHZ001>008-015>018-024>027-034-035-043-044-070300-
   NORTHWEST OHIO

CITY           SKY/WX    TMP DP  RH WIND       PRES   REMARKS
DEFIANCE       MOCLDY    79  65  62 S8        29.93F
FINDLAY        PTCLDY    74  64  71 S9        29.95F
TOLEDO EXPRESS PTCLDY    74  64  71 S5        29.92F
TOLEDO EXEC    PTCLDY    74  63  68 S7        29.94F
LIMA           PTCLDY    74  65  73 S7        29.96F
$$

OHZ009>014-019>023-028>033-038-089-070300-
   NORTHEAST OHIO

CITY           SKY/WX    TMP DP  RH WIND       PRES   REMARKS
CLE-HOPKINS    MOCLDY    76  63  64 S6        29.99S
CLE-LAKEFRONT  MOCLDY    75  66  73 CALM      29.96F
CUY CO. ARPT   PTCLDY    75  68  78 SE6       29.99S
LORAIN-ELYRIA  CLEAR     70  65  84 S3        29.98S
ASHTABULA      CLEAR     69  66  90 SE7       29.99F
AKRON-CANTON   PTCLDY    74  68  81 SE7       30.01R
WOOSTER        PTCLDY    72  68  87 W3        30.01R
MANSFIELD      CLEAR     69  60  73 SW7       30.01S
YOUNGSTOWN     PTCLDY    67  67 100 SE5       30.01S
$$

OHZ042-051>053-060>062-070>072-077>081-070300-
  SOUTHWEST OHIO

CITY           SKY/WX    TMP DP  RH WIND       PRES   REMARKS
CINC-COVINGTON PTCLDY    76  68  76 S5        30.00S
CINC-LUNKEN    PTCLDY    73  70  90 CALM      30.00R
HAMILTON       PTCLDY    73  69  87 S3        29.99S FOG
DAYTON         PTCLDY    78  66  66 S6        30.00F
WRIGHT-PAT AFB CLEAR     75  64  69 CALM      29.98F
DAYTON GENERAL PTCLDY    75  66  73 S6        29.99F
WILMINGTON     CLEAR     72  65  78 S5        30.01S
$$

OHZ036-037-039>041-045>050-054>059-063>069-073>076-082>088-070300-
  CENTRAL AND SOUTHEAST OHIO

CITY           SKY/WX    TMP DP  RH WIND       PRES   REMARKS
COLUMBUS       PTCLDY    75  62  64 S5        30.00S
OSU AIRPORT    CLEAR     75  59  57 S5        30.00S
BOLTON FIELD   NOT AVBL
RICKENBACK AFB NOT AVBL
NEWARK         PTCLDY    70  63  78 CALM      30.01R
MARION         CLEAR     73  62  68 S5        29.99F HAZE
LANCASTER      CLEAR     69  62  78 S3        30.02R
ZANESVILLE     NOT AVBL
NEW PHILLY     MOCLDY    70  69  97 CALM      30.02R
$$



USA.gov is the U.S. government's official web portal to all federal, state and local government web resources and services.